Stations météo

réclame
Mon MeteoGroup
Decimomannu, Italie (16546): Température de l'air & dewpoint: 12.12.2017 15:00:00 - 18.12.2017 15:00:00 (CET)Decimomannu, Italie (16546): Vitesse du vent: 12.12.2017 15:00:00 - 18.12.2017 15:00:00 (CET)Decimomannu, Italie (16546): Direction du vent: 12.12.2017 15:00:00 - 18.12.2017 15:00:00 (CET)Decimomannu, Italie (16546): reduced air pressure: 12.12.2017 15:00:00 - 18.12.2017 15:00:00 (CET)Decimomannu, Italie (16546): visibility: 12.12.2017 15:00:00 - 18.12.2017 15:00:00 (CET)
Date & Time tt [°C] td [°C] ff [km/h] ff [knt] dd ppp [hPa] vv [km]
18.12.2017 15:00:00 11,0 6,0 15 8 NW - 10
18.12.2017 14:00:00 12,0 6,0 5 3 NW - 10
18.12.2017 13:00:00 11,6 8,1 8 4 WNW 1024,0 20
18.12.2017 12:00:00 10,0 7,0 5 3 NW - 10
18.12.2017 11:00:00 8,0 6,0 5 3 WNW - 10
18.12.2017 10:00:00 6,0 4,5 4 2 WNW 1024,9 20
18.12.2017 09:00:00 3,0 2,0 4 2 NNW - 10
18.12.2017 08:00:00 2,0 1,0 8 4 NW - 10
18.12.2017 07:00:00 2,0 0,8 8 4 N 1024,2 16
18.12.2017 06:00:00 3,0 1,0 9 5 NNW - 10
18.12.2017 05:00:00 4,0 3,0 5 3 N - 10
18.12.2017 04:00:00 4,0 2,8 8 4 NE 1023,9 12
18.12.2017 03:00:00 4,0 3,0 5 3 NW - 10
18.12.2017 02:00:00 5,0 4,0 9 5 NE - 10
18.12.2017 01:00:00 6,0 4,0 15 8 N 1023,5 12
18.12.2017 00:00:00 7,0 5,0 15 8 N - 10
17.12.2017 23:00:00 7,0 5,0 11 6 NNW - 10
17.12.2017 22:00:00 5,0 3,8 4 2 N 1022,5 12
17.12.2017 21:00:00 5,0 4,0 8 4 NNW - 10
17.12.2017 20:00:00 5,0 4,0 9 5 N - 10
17.12.2017 19:00:00 7,2 5,8 9 5 NNW 1019,9 12
17.12.2017 18:00:00 8,0 6,0 11 6 N - 10
17.12.2017 17:00:00 8,0 7,0 11 6 NNW - 10
17.12.2017 16:00:00 8,0 6,6 16 9 W 1018,2 15
17.12.2017 15:00:00 8,0 7,0 15 8 W - 10
17.12.2017 14:00:00 10,0 9,0 24 13 NNW - 10
17.12.2017 13:00:00 10,6 7,7 28 15 NNW 1017,9 12
17.12.2017 12:00:00 10,0 8,0 24 13 NNW - 10
17.12.2017 11:00:00 9,0 7,0 16 9 NNW - 10
17.12.2017 10:00:00 10,0 7,8 31 17 WNW 1018,2 12
17.12.2017 09:00:00 9,0 7,0 9 5 NW - 10
17.12.2017 08:00:00 6,0 4,0 15 8 WNW - 10
17.12.2017 07:00:00 7,2 4,0 13 7 NNW 1016,8 12
17.12.2017 06:00:00 6,0 5,0 8 4 NW - 10
17.12.2017 05:00:00 6,0 5,0 2 1 WNW - 10
17.12.2017 04:00:00 6,0 4,8 4 2 SSW 1016,5 12
17.12.2017 03:00:00 7,0 5,0 4 2 W - 10
17.12.2017 02:00:00 8,0 6,0 4 2 SSE - 10
17.12.2017 01:00:00 7,4 5,1 4 2 SSE 1015,9 12
17.12.2017 00:00:00 7,0 5,0 9 5 W - 10
16.12.2017 23:00:00 7,0 6,0 9 5 NW - 10
16.12.2017 22:00:00 8,0 6,9 21 11 WNW 1015,1 8
16.12.2017 21:00:00 8,0 6,0 5 3 NNE - 10
16.12.2017 20:00:00 9,0 6,0 13 7 WNW - 10
16.12.2017 19:00:00 9,0 5,8 15 8 W 1013,1 15
16.12.2017 18:00:00 9,0 5,0 9 5 W - 10
16.12.2017 17:00:00 10,0 6,0 13 7 WNW - 10
16.12.2017 16:00:00 11,2 5,5 29 16 WNW 1011,1 20
16.12.2017 15:00:00 13,0 7,0 26 14 NW - 10
16.12.2017 14:00:00 13,0 8,0 22 12 NW - 10
16.12.2017 13:00:00 12,8 7,9 22 12 NW 1010,3 20
16.12.2017 12:00:00 13,0 10,0 8 4 WNW - 10
16.12.2017 11:00:00 11,0 9,0 8 4 W - 10
16.12.2017 10:00:00 10,0 8,4 11 6 WNW 1010,7 18
16.12.2017 09:00:00 9,0 7,0 5 3 W - 10
16.12.2017 08:00:00 8,0 6,0 5 3 NW - 10
16.12.2017 07:00:00 7,6 6,1 5 3 NNE 1008,1 12
16.12.2017 06:00:00 8,0 6,0 5 3 N - 10
16.12.2017 05:00:00 8,0 7,0 2 1 WSW - 10
16.12.2017 04:00:00 8,2 6,3 5 3 NE 1007,6 10
16.12.2017 03:00:00 9,0 7,0 11 6 N - 10
16.12.2017 02:00:00 8,0 6,0 4 2 SE - 10
16.12.2017 01:00:00 9,4 7,7 5 3 SW 1008,3 9
16.12.2017 00:00:00 9,0 8,0 8 4 W - 8
15.12.2017 23:00:00 9,0 8,0 2 1 NNE - 8
15.12.2017 22:00:00 10,0 8,4 8 4 NNW 1006,8 8
15.12.2017 21:00:00 12,0 10,0 13 7 NW - 8
15.12.2017 20:00:00 12,0 10,0 13 7 N - 6
15.12.2017 19:00:00 12,4 10,8 24 13 NW 1005,4 7
15.12.2017 18:00:00 13,0 11,0 34 18 NW - 8
15.12.2017 17:00:00 15,0 13,0 31 17 WSW - 8
15.12.2017 16:00:00 16,0 14,2 28 15 WSW 1003,0 10
15.12.2017 15:00:00 16,0 14,0 26 14 WSW - 6
15.12.2017 14:00:00 16,0 14,0 24 13 SW - 9
15.12.2017 13:00:00 16,4 14,4 22 12 SW 1005,6 9
15.12.2017 12:00:00 15,0 14,0 13 7 S - 8
15.12.2017 11:00:00 15,0 13,0 11 6 S - 6
15.12.2017 10:00:00 14,6 13,0 21 11 SSW 1008,7 3,0
15.12.2017 09:00:00 15,0 13,0 18 10 SSW - 7
15.12.2017 08:00:00 14,0 12,0 15 8 SW - 8
15.12.2017 07:00:00 14,0 12,4 15 8 SW 1010,0 7
15.12.2017 06:00:00 15,0 13,0 21 11 SSW - 7
15.12.2017 05:00:00 15,0 13,0 13 7 WSW - 7
15.12.2017 04:00:00 15,0 13,4 11 6 SW 1011,3 8
15.12.2017 03:00:00 15,0 13,0 8 4 SW - 8
15.12.2017 02:00:00 15,0 13,0 9 5 W - 8
15.12.2017 01:00:00 14,8 13,2 16 9 WSW 1012,7 8
15.12.2017 00:00:00 15,0 13,0 16 9 WSW - 8
14.12.2017 23:00:00 14,0 13,0 8 4 WSW - 8
14.12.2017 22:00:00 15,0 13,4 11 6 W 1014,8 8
14.12.2017 21:00:00 14,0 13,0 8 4 SE - 8
14.12.2017 20:00:00 15,0 14,0 15 8 W - 8
14.12.2017 19:00:00 14,0 13,1 4 2 S 1015,6 10
14.12.2017 18:00:00 14,0 13,0 4 2 S - 10
14.12.2017 17:00:00 15,0 13,0 9 5 WSW - 10
14.12.2017 16:00:00 15,4 12,7 13 7 WSW 1016,4 10
14.12.2017 15:00:00 15,0 13,0 18 10 WSW - 10
14.12.2017 14:00:00 15,0 13,0 16 9 WSW - 10
14.12.2017 13:00:00 14,2 12,6 21 11 WSW 1018,6 10
14.12.2017 12:00:00 15,0 13,0 22 12 WSW - 10
14.12.2017 11:00:00 15,0 12,0 9 5 WNW - 10
14.12.2017 10:00:00 12,4 10,3 9 5 WNW 1019,9 20
14.12.2017 09:00:00 10,0 8,0 8 4 N - 10
14.12.2017 08:00:00 6,0 5,0 5 3 NNE - 10
14.12.2017 07:00:00 5,0 3,5 4 2 E 1020,2 12
14.12.2017 06:00:00 6,0 5,0 4 2 ENE - 10
14.12.2017 05:00:00 4,0 3,0 5 3 ENE - 10
14.12.2017 04:00:00 4,2 3,0 8 4 E 1021,0 12
14.12.2017 03:00:00 6,0 5,0 8 4 N - 10
14.12.2017 02:00:00 6,0 5,0 5 3 NNW - 10
14.12.2017 01:00:00 4,4 3,2 4 2 ENE 1022,4 10
14.12.2017 00:00:00 4,0 3,0 4 2 E - 10
13.12.2017 23:00:00 5,0 3,0 9 5 NW - 10
13.12.2017 22:00:00 4,2 3,3 2 1 NNW 1023,8 12
13.12.2017 21:00:00 5,0 4,0 5 3 N - 10
13.12.2017 20:00:00 7,0 6,0 4 2 W - 10
13.12.2017 19:00:00 7,6 5,9 4 2 SSE 1023,2 12
13.12.2017 18:00:00 9,0 6,0 11 6 WNW - 10
13.12.2017 17:00:00 11,0 6,0 18 10 NW - 10
13.12.2017 16:00:00 12,2 5,6 26 14 WNW 1022,7 20
13.12.2017 15:00:00 13,0 6,0 28 15 NNW - 10
13.12.2017 14:00:00 14,0 8,0 29 16 NNW - 10
13.12.2017 13:00:00 14,6 9,4 26 14 NW 1022,8 20
13.12.2017 12:00:00 14,0 10,0 26 14 WNW - 10
13.12.2017 11:00:00 13,0 10,0 22 12 NW - 10
13.12.2017 10:00:00 13,0 11,2 22 12 NW 1022,7 10
13.12.2017 09:00:00 11,0 9,0 4 2 NE - 10
13.12.2017 08:00:00 10,0 8,0 4 2 NE - 10
13.12.2017 07:00:00 10,6 8,9 4 2 NE 1019,9 10
13.12.2017 06:00:00 11,0 9,0 5 3 SSW - 10
13.12.2017 05:00:00 12,0 10,0 5 3 WNW - 10
13.12.2017 04:00:00 11,8 10,4 4 2 W 1019,0 10
13.12.2017 03:00:00 12,0 10,0 5 3 WSW - 10
13.12.2017 02:00:00 12,0 10,0 5 3 WSW - 10
13.12.2017 01:00:00 12,8 11,2 8 4 W 1018,5 10
13.12.2017 00:00:00 12,0 11,0 2 1 WNW - 10
12.12.2017 23:00:00 13,0 11,0 5 3 N - 10
12.12.2017 22:00:00 12,8 11,2 4 2 ENE 1017,9 10
12.12.2017 21:00:00 13,0 12,0 5 3 N - 8
12.12.2017 20:00:00 13,0 12,0 9 5 N - 8
12.12.2017 19:00:00 13,2 11,8 4 2 SSW 1015,2 8
12.12.2017 18:00:00 14,0 12,0 5 3 NNW - 8
12.12.2017 17:00:00 14,0 13,0 8 4 NNE - 8
12.12.2017 16:00:00 14,6 13,3 11 6 NNW 1013,1 12
12.12.2017 15:00:00 15,0 14,0 21 11 NNW - 10

tt = Température de l'air
td = dewpoint
ff = Vitesse du vent
dd = Direction du vent
ppp = reduced air pressure
vv = visibility

stations d'obs. à proximité